TimePST,TemperatureF,Dew PointF,Humidity,Sea Level PressureIn,VisibilityMPH,Wind Direction,Wind SpeedMPH,Gust SpeedMPH,PrecipitationIn,Events,Conditions,WindDirDegrees,DateUTC
12:16 AM,41.0,39.2,93,30.45,2.0,Calm,Calm,-,N/A,,Overcast,0,2011-12-07 08:16:00
12:20 AM,41.0,39.2,93,30.44,1.8,Calm,Calm,-,N/A,,Overcast,0,2011-12-07 08:20:00
12:32 AM,41.0,41.0,100,30.44,1.2,Calm,Calm,-,0.00,Rain,Light Rain,0,2011-12-07 08:32:00
12:41 AM,41.0,41.0,100,30.44,1.8,Calm,Calm,-,0.00,,Overcast,0,2011-12-07 08:41:00
12:43 AM,41.0,41.0,100,30.44,2.0,Calm,Calm,-,0.00,,Overcast,0,2011-12-07 08:43:00
12:53 AM,41.0,41.0,100,30.45,1.5,Calm,Calm,-,0.01,Rain,Light Rain,0,2011-12-07 08:53:00
1:05 AM,41.0,39.2,93,30.44,2.5,Calm,Calm,-,0.00,,Overcast,0,2011-12-07 09:05:00
1:15 AM,41.0,39.2,93,30.44,3.0,Calm,Calm,-,0.00,,Overcast,0,2011-12-07 09:15:00
1:20 AM,41.0,39.2,93,30.44,2.5,Calm,Calm,-,0.00,,Overcast,0,2011-12-07 09:20:00
1:25 AM,41.0,39.2,93,30.44,1.2,Calm,Calm,-,0.00,,Overcast,0,2011-12-07 09:25:00
1:33 AM,41.0,39.2,93,30.44,2.0,Calm,Calm,-,0.00,,Overcast,0,2011-12-07 09:33:00
1:38 AM,41.0,39.2,93,30.44,1.5,Calm,Calm,-,0.00,,Overcast,0,2011-12-07 09:38:00
1:42 AM,41.0,39.2,93,30.44,0.8,Calm,Calm,-,0.00,,Overcast,0,2011-12-07 09:42:00
1:53 AM,41.0,41.0,100,30.44,0.5,Calm,Calm,-,0.00,Fog,Fog,0,2011-12-07 09:53:00
1:57 AM,41.0,39.2,93,30.44,0.5,Calm,Calm,-,N/A,Fog,Fog,0,2011-12-07 09:57:00
2:26 AM,41.0,39.2,93,30.44,1.5,Calm,Calm,-,0.00,Rain,Light Rain,0,2011-12-07 10:26:00
2:35 AM,41.0,39.2,93,30.44,1.8,Calm,Calm,-,0.00,Rain,Light Rain,0,2011-12-07 10:35:00
2:42 AM,41.0,39.2,93,30.44,3.0,Calm,Calm,-,0.00,,Overcast,0,2011-12-07 10:42:00
2:53 AM,41.0,39.9,96,30.45,3.0,Calm,Calm,-,0.00,,Overcast,0,2011-12-07 10:53:00
3:10 AM,41.0,39.2,93,30.44,1.8,Calm,Calm,-,0.01,,Overcast,0,2011-12-07 11:10:00
3:33 AM,41.0,41.0,100,30.44,3.0,Calm,Calm,-,0.01,Rain,Light Rain,0,2011-12-07 11:33:00
3:45 AM,41.0,41.0,100,30.43,2.5,Calm,Calm,-,0.01,Rain,Light Rain,0,2011-12-07 11:45:00
3:53 AM,41.0,41.0,100,30.44,3.0,Calm,Calm,-,0.02,Rain,Light Rain,0,2011-12-07 11:53:00
4:53 AM,41.0,39.9,96,30.44,5.0,Calm,Calm,-,N/A,,Overcast,0,2011-12-07 12:53:00
5:53 AM,41.0,41.0,100,30.44,5.0,East,3.5,-,N/A,,Overcast,90,2011-12-07 13:53:00
6:26 AM,41.0,41.0,100,30.43,2.5,Calm,Calm,-,N/A,,Overcast,0,2011-12-07 14:26:00
6:40 AM,41.0,41.0,100,30.43,1.2,Calm,Calm,-,N/A,,Overcast,0,2011-12-07 14:40:00
6:53 AM,41.0,41.0,100,30.43,1.2,ENE,3.5,-,N/A,,Overcast,70,2011-12-07 14:53:00
7:19 AM,41.0,41.0,100,30.43,0.8,Calm,Calm,-,N/A,,Mist,0,2011-12-07 15:19:00
7:38 AM,41.0,41.0,100,30.43,1.0,Calm,Calm,-,N/A,,Mist,0,2011-12-07 15:38:00
7:50 AM,41.0,41.0,100,30.44,0.8,Calm,Calm,-,N/A,,Mist,0,2011-12-07 15:50:00
7:53 AM,41.0,41.0,100,30.44,0.8,Calm,Calm,-,N/A,,Mist,0,2011-12-07 15:53:00
8:17 AM,41.0,41.0,100,30.44,0.2,Calm,Calm,-,N/A,Fog,Fog,0,2011-12-07 16:17:00
8:53 AM,41.0,41.0,100,30.44,0.2,Calm,Calm,-,N/A,Fog,Fog,0,2011-12-07 16:53:00
9:30 AM,42.8,41.0,93,30.45,0.5,Calm,Calm,-,N/A,Fog,Fog,0,2011-12-07 17:30:00
9:42 AM,42.8,42.8,100,30.44,1.2,Calm,Calm,-,N/A,,Overcast,0,2011-12-07 17:42:00
9:53 AM,42.1,42.1,100,30.45,1.2,Calm,Calm,-,N/A,,Overcast,0,2011-12-07 17:53:00
9:56 AM,42.8,42.8,100,30.44,2.0,Calm,Calm,-,N/A,,Overcast,0,2011-12-07 17:56:00
10:05 AM,42.8,42.8,100,30.45,4.0,East,3.5,-,N/A,,Overcast,90,2011-12-07 18:05:00
10:44 AM,44.6,42.8,93,30.45,10.0,Calm,Calm,-,N/A,,Overcast,0,2011-12-07 18:44:00
10:53 AM,43.0,42.1,97,30.45,10.0,Calm,Calm,-,N/A,,Overcast,0,2011-12-07 18:53:00
11:53 AM,44.1,42.1,93,30.43,10.0,Calm,Calm,-,N/A,,Mostly Cloudy,0,2011-12-07 19:53:00
12:31 PM,46.4,42.8,87,30.41,10.0,Calm,Calm,-,N/A,,Mostly Cloudy,0,2011-12-07 20:31:00
12:53 PM,46.0,42.1,86,30.43,10.0,North,3.5,-,N/A,,Overcast,350,2011-12-07 20:53:00
1:04 PM,46.4,42.8,87,30.42,10.0,Calm,Calm,-,N/A,,Overcast,0,2011-12-07 21:04:00
1:11 PM,46.4,42.8,87,30.42,10.0,Calm,Calm,-,N/A,,Overcast,0,2011-12-07 21:11:00
1:53 PM,45.0,42.1,90,30.42,10.0,North,5.8,-,N/A,,Mostly Cloudy,10,2011-12-07 21:53:00
2:13 PM,46.4,42.8,87,30.41,10.0,North,5.8,-,N/A,,Mostly Cloudy,360,2011-12-07 22:13:00
2:23 PM,44.6,41.0,87,30.41,10.0,NNE,4.6,-,N/A,,Scattered Clouds,20,2011-12-07 22:23:00
2:53 PM,45.0,39.9,82,30.41,10.0,NE,3.5,-,N/A,,Clear,40,2011-12-07 22:53:00
3:53 PM,41.0,39.0,93,30.42,10.0,North,4.6,-,N/A,,Partly Cloudy,350,2011-12-07 23:53:00
4:53 PM,39.0,37.0,93,30.43,10.0,North,4.6,-,N/A,,Clear,10,2011-12-08 00:53:00
5:53 PM,37.9,36.0,93,30.43,10.0,North,6.9,-,N/A,,Clear,360,2011-12-08 01:53:00
6:53 PM,37.0,35.1,93,30.42,10.0,North,8.1,-,N/A,,Clear,10,2011-12-08 02:53:00
7:53 PM,36.0,34.0,93,30.44,10.0,NNE,8.1,-,N/A,,Clear,20,2011-12-08 03:53:00
8:53 PM,35.1,33.1,92,30.44,10.0,North,4.6,-,N/A,,Clear,10,2011-12-08 04:53:00
9:53 PM,30.9,30.0,96,30.45,10.0,NE,5.8,-,N/A,,Clear,40,2011-12-08 05:53:00
10:30 PM,32.0,30.2,93,30.44,10.0,NNE,3.5,-,N/A,,Mostly Cloudy,20,2011-12-08 06:30:00
10:53 PM,34.0,32.0,92,30.45,10.0,NNE,5.8,-,N/A,,Overcast,20,2011-12-08 06:53:00
11:20 PM,32.0,30.2,93,30.43,8.0,ESE,3.5,-,N/A,,Scattered Clouds,110,2011-12-08 07:20:00
11:53 PM,30.9,30.0,96,30.44,10.0,NNE,3.5,-,N/A,,Partly Cloudy,30,2011-12-08 07:53:00